GOES 14

Last updated on Tue Oct 14 2025 00:02:22 GMT+0000 (Coordinated Universal Time)

1 35491U 09033A 25286.53738499 -.00000079 00000+0 00000+0 0 9993 2 35491 1.0392 86.1161 0004091 123.9536 257.2948 1.00270843 4124
UTC large
Height (km)
Speed (km/s)
/
Latitude / Longitude
Inclination (degrees)
Orbital Period (minutes)
Azimuth
Elevation
Range (km)
Doppler Factor

Next 0 passes for location: London (51.5072 / 0.1276)

Sorry there are no passes over London.